Clines Corner, NM

4:09 AM MST on December 15, 2017 (GMT -0700)
Clines Corner

Weather History for KCQC - October, 2012

Change the Weather History Date:

Tuesday, October 30, 2012

  Actual Average (KSAF) Record (KSAF)
Temperature  
Mean Temperature 53 °F -  
Max Temperature 70 °F 65 °F 75 °F (2016)
Min Temperature 37 °F 24 °F 21 °F (1980)
Degree Days  
Heating Degree Days 12    
Growing Degree Days 3 (Base 50)    
Moisture  
Dew Point 14 °F    
Average Humidity 23    
Maximum Humidity 33    
Minimum Humidity 14    
Precipitation  
Precipitation 0.00 in - - ()
Sea Level Pressure  
Sea Level Pressure 30.04 in    
Wind  
Wind Speed 12 mph (WNW)    
Max Wind Speed 16 mph    
Max Gust Speed 20 mph    
Visibility 10 miles    
Events      
Averages and records for this station are not official NWS values.
T = Trace of Precipitation, MM = Missing Value Source: NWS Daily Summary

Daily Weather History Graph

Daily Weather History Graph

Search for Another Location

Airport or City:

Trip Planner

Search our weather history database for the weather conditions in past years. The results will help you decide how hot, cold, wet, or windy it might be!

Date:

Astronomy

Oct. 30, 2012 Rise Set
Actual Time 7:22 AM MDT 6:09 PM MDT
Civil Twilight 6:56 AM MDT 6:35 PM MDT
Nautical Twilight 6:26 AM MDT 7:05 PM MDT
Astronomical Twilight 5:56 AM MDT 7:35 PM MDT
Moon 6:44 PM MDT (10/30) 8:08 AM MDT (10/30)
Length of Visible Light 11h 39m
Length of Day
10h 47m
Full, 99% of the Moon is Illuminated
Oct 30
Full
Nov 6
Last Quarter
Nov 13
New
Nov 20
First Quarter
Nov 28
Full

Hourly Weather History & Observations

Time (MDT) Temp. Windchill Dew Point Humidity Pressure Visibility Wind Dir Wind Speed Gust Speed Precip Events Conditions
12:53 AM 44.1 °F 37.1 °F 10.9 °F 26% 30.04 in 10.0 mi NW 15.0 mph - N/A   Clear
1:53 AM 42.1 °F 34.9 °F 10.9 °F 28% 30.01 in 10.0 mi WNW 13.8 mph - N/A   Clear
2:53 AM 41.0 °F 32.8 °F 10.9 °F 29% 30.02 in 10.0 mi WNW 16.1 mph - N/A   Clear
3:53 AM 43.0 °F 36.0 °F 10.9 °F 27% 30.01 in 10.0 mi NW 13.8 mph - N/A   Clear
4:53 AM 43.0 °F 36.4 °F 12.0 °F 28% 30.02 in 10.0 mi NW 12.7 mph - N/A   Clear
5:53 AM 39.0 °F 31.4 °F 10.9 °F 32% 30.06 in 10.0 mi WNW 12.7 mph - N/A   Clear
6:53 AM 37.9 °F 31.5 °F 10.9 °F 33% 30.10 in 10.0 mi WNW 9.2 mph - N/A   Clear
7:53 AM 42.1 °F 36.6 °F 12.0 °F 29% 30.12 in 9.0 mi NW 9.2 mph - N/A   Clear
8:53 AM 48.9 °F - 15.1 °F 26% 30.09 in 10.0 mi NW 11.5 mph - N/A   Clear
9:53 AM 54.0 °F - 18.0 °F 24% 30.09 in 10.0 mi NNW 12.7 mph - N/A   Clear
10:53 AM 59.0 °F - 19.0 °F 21% 30.08 in 10.0 mi NW 9.2 mph - N/A   Clear
11:53 AM 64.9 °F - 19.0 °F 17% 30.06 in 10.0 mi West 4.6 mph - N/A   Clear
12:53 PM 66.0 °F - 18.0 °F 16% 30.04 in 10.0 mi SW 6.9 mph - N/A   Clear
1:53 PM 68.0 °F - 18.0 °F 15% 30.01 in 10.0 mi SW 6.9 mph - N/A   Clear
2:53 PM 68.0 °F - 18.0 °F 15% 29.99 in 10.0 mi Variable 6.9 mph - N/A   Clear
3:53 PM 69.1 °F - 17.1 °F 14% 29.98 in 10.0 mi WNW 11.5 mph - N/A   Clear
4:53 PM 66.9 °F - 15.1 °F 14% 29.99 in 10.0 mi WNW 10.4 mph 19.6 mph N/A   Clear
5:53 PM 61.0 °F - 14.0 °F 16% 30.03 in 10.0 mi WNW 9.2 mph - N/A   Clear
6:53 PM 52.0 °F - 12.9 °F 21% 30.09 in 10.0 mi NW 8.1 mph - N/A   Clear
7:53 PM 48.9 °F - 10.9 °F 22% 30.09 in 10.0 mi WNW 9.2 mph - N/A   Clear
8:53 PM 48.0 °F - 10.9 °F 22% 30.06 in 10.0 mi West 9.2 mph - N/A   Clear
9:53 PM 46.9 °F - 10.9 °F 23% 30.05 in 10.0 mi WNW 9.2 mph - N/A   Clear
10:53 PM 46.0 °F 40.2 °F 10.9 °F 24% 30.03 in 10.0 mi West 12.7 mph - N/A   Clear
11:53 PM 46.0 °F 41.9 °F 10.9 °F 24% 30.01 in 10.0 mi West 8.1 mph - N/A   Clear